Weather History for Kalaeloa, HI

Change the Weather History Date:

Monday, January 13, 2014

  Actual Average (PHNL) Record (PHNL)
Temperature  
Mean Temperature 74 °F 73 °F  
Max Temperature 79 °F 80 °F 85 °F (1991)
Min Temperature 68 °F 66 °F 57 °F (1978)
Degree Days  
Heating Degree Days 0 0  
Month to date heating degree days 0  
Since 1 July heating degree days 0  
Cooling Degree Days 8 8  
Month to date cooling degree days 106  
Year to date cooling degree days 106  
Growing Degree Days 24 (Base 50)    
Moisture  
Dew Point 69 °F    
Average Humidity 88    
Maximum Humidity 96    
Minimum Humidity 77    
Precipitation  
Precipitation 0.45 in 0.08 in 1.01 in (2011)
Month to date precipitation 1.15  
Year to date precipitation 1.15  
Snow  
Snow 0.00 in - - ()
Month to date snowfall  
Since 1 July snowfall  
Snow Depth -    
Sea Level Pressure  
Sea Level Pressure 29.95 in    
Wind  
Wind Speed 3 mph (WSW)    
Max Wind Speed 24 mph    
Max Gust Speed 34 mph    
Visibility 6 miles    
Events Rain    
T = Trace of Precipitation, MM = Missing Value Source: NWS Daily Summary

Daily Weather History Graph

Daily Weather History Graph

Search for Another Location

Airport:

Trip Planner

Search our weather history database for the weather conditions in past years. The results will help you decide how hot, cold, wet, or windy it might be!

Date:

Astronomy

Jan. 13, 2014 Rise Set
Actual Time 7:12 AM HST 6:10 PM HST
Civil Twilight 6:48 AM HST 6:33 PM HST
Nautical Twilight 6:21 AM HST 7:01 PM HST
Astronomical Twilight 5:54 AM HST 7:28 PM HST
Moon 4:32 PM HST (1/13) 5:12 AM HST (1/13)
Length of Visible Light 11h 45m
Length of Day
10h 57m
Waxing Gibbous, 95% of the Moon is Illuminated
Jan 13
Waxing Gibbous
Jan 15
Full
Jan 23
Last Quarter
Jan 30
New
Feb 6
First Quarter

Hourly Weather History & Observations

Time (HST) Temp. Dew Point Humidity Pressure Visibility Wind Dir Wind Speed Gust Speed Precip Events Conditions
12:10 AM 68.0 °F 66.2 °F 94% 29.98 in 2.5 mi Calm Calm - N/A   Clear
12:21 AM - - N/A% 29.98 in 3.0 mi NNE 3.5 mph - N/A   Clear
12:53 AM - - N/A% 30.01 in 5.0 mi Calm Calm - N/A   Haze
1:53 AM - - N/A% 29.99 in 5.0 mi Calm Calm - N/A   Haze
2:53 AM - - N/A% 29.98 in 2.5 mi Calm Calm - N/A   Partly Cloudy
3:01 AM - - N/A% 29.95 in 4.0 mi Calm Calm - 0.01 in   Haze
3:53 AM - - N/A% 29.98 in 3.0 mi Calm Calm - 0.01 in   Clear
4:18 AM - - N/A% 29.95 in 2.0 mi Calm Calm - N/A   Clear
4:30 AM - - N/A% 29.95 in 1.5 mi Calm Calm - N/A   Clear
4:37 AM - - N/A% 29.95 in 2.0 mi Calm Calm - N/A   Clear
4:45 AM - - N/A% 29.95 in 1.5 mi Calm Calm - N/A   Clear
4:53 AM - - N/A% 29.98 in 2.0 mi Calm Calm - N/A   Clear
5:39 AM - - N/A% 29.96 in 4.0 mi Calm Calm - N/A   Haze
5:53 AM - - N/A% 29.99 in 2.0 mi Calm Calm - N/A   Scattered Clouds
5:55 AM - - N/A% 29.97 in 1.5 mi Calm Calm - N/A   Scattered Clouds
6:10 AM - - N/A% 29.97 in 2.0 mi Calm Calm - N/A   Partly Cloudy
6:31 AM - - N/A% 29.97 in 5.0 mi NNE 3.5 mph - N/A   Haze
6:53 AM - - N/A% 29.99 in 2.0 mi Calm Calm - N/A   Scattered Clouds
7:05 AM - - N/A% 29.97 in 3.0 mi Calm Calm - N/A   Partly Cloudy
7:15 AM - - N/A% 29.97 in 1.8 mi Calm Calm - N/A   Partly Cloudy
7:18 AM - - N/A% 29.97 in 1.0 mi Calm Calm - N/A   Mist
7:23 AM - - N/A% 29.97 in 1.2 mi Calm Calm - N/A   Partly Cloudy
7:28 AM - - N/A% 29.97 in 3.0 mi NE 3.5 mph - N/A   Scattered Clouds
7:53 AM - - N/A% 29.99 in 4.0 mi NNE 3.5 mph - N/A   Haze
8:53 AM - - N/A% 30.01 in 9.0 mi Calm Calm - N/A   Mostly Cloudy
9:00 AM - - N/A% 29.99 in 10.0 mi Calm Calm - N/A   Mostly Cloudy
9:19 AM 75.2 °F 71.6 °F 89% 29.99 in 10.0 mi SW 3.5 mph - N/A   Scattered Clouds
9:53 AM 75.0 °F 71.1 °F 87% 30.01 in 10.0 mi SSE 4.6 mph - N/A   Clear
10:53 AM 75.9 °F 71.1 °F 85% 30.00 in 10.0 mi SSE 3.5 mph - N/A   Partly Cloudy
11:53 AM 77.0 °F 72.0 °F 84% 29.98 in 10.0 mi South 4.6 mph - N/A   Clear
12:53 PM 78.1 °F 71.1 °F 79% 29.94 in 10.0 mi SSW 8.1 mph - N/A   Partly Cloudy
1:53 PM 79.0 °F 71.1 °F 77% 29.92 in 10.0 mi SSW 8.1 mph - N/A   Partly Cloudy
2:53 PM 77.0 °F 70.0 °F 79% 29.91 in 10.0 mi SSW 5.8 mph - N/A   Scattered Clouds
3:53 PM 75.9 °F 69.1 °F 79% 29.90 in 10.0 mi SSW 8.1 mph - N/A   Scattered Clouds
4:53 PM 75.0 °F 69.1 °F 82% 29.91 in 10.0 mi West 4.6 mph - N/A   Mostly Cloudy
5:05 PM 71.6 °F 69.8 °F 94% 29.89 in 6.0 mi West 13.8 mph 21.9 mph 0.02 in Rain Light Rain
5:08 PM 71.6 °F 69.8 °F 94% 29.89 in 1.5 mi West 8.1 mph 21.9 mph 0.10 in Rain Heavy Rain
5:11 PM 71.6 °F 68.0 °F 88% 29.89 in 0.8 mi WNW 3.5 mph 21.9 mph 0.17 in Rain Heavy Rain
5:17 PM 71.6 °F 68.0 °F 88% 29.89 in 1.2 mi NNW 4.6 mph - 0.18 in Rain Light Rain
5:20 PM 71.6 °F 68.0 °F 88% 29.89 in 4.0 mi Variable 4.6 mph - 0.18 in Rain Light Rain
5:53 PM 71.1 °F 68.0 °F 90% 29.92 in 1.5 mi WSW 12.7 mph 24.2 mph 0.30 in Rain Light Rain
6:03 PM 71.6 °F 66.2 °F 83% 29.90 in 2.5 mi WSW 3.5 mph - 0.03 in Rain Light Rain
6:05 PM 71.6 °F 66.2 °F 83% 29.90 in 8.0 mi WSW 4.6 mph - 0.03 in Rain Light Rain
6:53 PM 73.9 °F 70.0 °F 87% 29.93 in 10.0 mi SW 6.9 mph - 0.03 in   Scattered Clouds
7:49 PM 71.6 °F 68.0 °F 88% 29.92 in 9.0 mi South 24.2 mph 34.5 mph N/A   Mostly Cloudy
7:53 PM 70.0 °F 66.0 °F 87% 29.94 in 7.0 mi South 16.1 mph 34.5 mph 0.00 in Rain Light Rain
7:58 PM 69.8 °F 68.0 °F 94% 29.92 in 7.0 mi South 11.5 mph 34.5 mph 0.00 in Rain Light Rain
8:34 PM 71.6 °F 68.0 °F 88% 29.93 in 10.0 mi SW 4.6 mph - 0.00 in   Mostly Cloudy
8:45 PM 73.4 °F 69.8 °F 88% 29.92 in 10.0 mi SW 9.2 mph - 0.00 in   Scattered Clouds
8:53 PM 73.9 °F 69.1 °F 85% 29.94 in 10.0 mi SW 9.2 mph - 0.00 in   Partly Cloudy
9:31 PM 71.6 °F 68.0 °F 88% 29.94 in 9.0 mi NW 10.4 mph 23.0 mph 0.01 in Rain Light Rain
9:53 PM 70.0 °F 66.9 °F 90% 29.96 in 10.0 mi NW 10.4 mph - 0.01 in   Mostly Cloudy
10:06 PM 69.8 °F 68.0 °F 94% 29.94 in 10.0 mi NW 5.8 mph - N/A   Mostly Cloudy
10:22 PM 69.8 °F 68.0 °F 94% 29.94 in 10.0 mi Calm Calm - N/A   Mostly Cloudy
10:53 PM 70.0 °F 68.0 °F 93% 29.96 in 10.0 mi Calm Calm - 0.00 in   Mostly Cloudy
11:08 PM 69.8 °F 68.0 °F 94% 29.94 in 2.5 mi Variable 3.5 mph - 0.05 in Rain Heavy Rain
11:14 PM 69.8 °F 68.0 °F 94% 29.94 in 2.0 mi Calm Calm - 0.09 in Rain Heavy Rain
11:23 PM 69.8 °F 68.0 °F 94% 29.94 in 6.0 mi Calm Calm - 0.10 in Rain Light Rain
11:44 PM 69.8 °F 68.0 °F 94% 29.93 in 10.0 mi NNE 3.5 mph - 0.10 in   Overcast
11:51 PM 69.8 °F 68.0 °F 94% 29.93 in 10.0 mi NNE 3.5 mph - 0.10 in   Overcast
11:53 PM 69.1 °F 68.0 °F 96% 29.94 in 10.0 mi NNE 3.5 mph - 0.10 in   Overcast